Weather History for Manhattan, KS

Change the Weather History Date:

Monday, August 19, 2013

  Actual Average Record
Temperature  
Mean Temperature 74 °F 77 °F  
Max Temperature 87 °F 89 °F 105 °F (2003)
Min Temperature 61 °F 65 °F 48 °F (2001)
Degree Days  
Heating Degree Days 0 0  
Month to date heating degree days 0 0  
Since 1 June heating degree days 12 12  
Since 1 July heating degree days 3 1  
Cooling Degree Days 9 12  
Month to date cooling degree days 169 251  
Year to date cooling degree days 1016 1057  
Since 1 June cooling degree days 880 957  
Growing Degree Days 25 (Base 50)    
Moisture  
Dew Point 65 °F    
Average Humidity 76    
Maximum Humidity 100    
Minimum Humidity 51    
Precipitation  
Precipitation 0.00 in 0.16 in 1.48 in (2006)
Month to date precipitation 4.10 2.36  
Year to date precipitation 21.22 22.62  
Sea Level Pressure  
Sea Level Pressure 30.02 in    
Wind  
Wind Speed 5 mph (South)    
Max Wind Speed 16 mph    
Max Gust Speed 22 mph    
Visibility 9 miles    
Events      
T = Trace of Precipitation, MM = Missing Value Source: NWS Daily Summary

Daily Weather History Graph

Daily Weather History Graph

Search for Another Location

Airport:

Trip Planner

Search our weather history database for the weather conditions in past years. The results will help you decide how hot, cold, wet, or windy it might be!

Date:

Astronomy

Aug. 19, 2013 Rise Set
Actual Time 6:43 AM CDT 8:16 PM CDT
Civil Twilight 6:15 AM CDT 8:44 PM CDT
Nautical Twilight 5:41 AM CDT 9:18 PM CDT
Astronomical Twilight 5:05 AM CDT 9:53 PM CDT
Moon 7:07 PM CDT (8/19) 5:04 AM CDT (8/19)
Length of Visible Light 14h 28m
Length of Day
13h 32m
Waxing Gibbous, 97% of the Moon is Illuminated
Aug 19
Waxing Gibbous
Aug 20
Full
Aug 28
Last Quarter
Sep 5
New
Sep 12
First Quarter

Hourly Weather History & Observations

Time (CDT) Temp. Heat Index Dew Point Humidity Pressure Visibility Wind Dir Wind Speed Gust Speed Precip Events Conditions
12:52 AM 64.9 °F - 63.0 °F 93% 30.08 in 9.0 mi Calm Calm - N/A   Partly Cloudy
1:52 AM 66.9 °F - 63.0 °F 87% 30.05 in 9.0 mi Calm Calm - N/A   Clear
2:52 AM 66.9 °F - 62.1 °F 84% 30.04 in 9.0 mi Calm Calm - N/A   Clear
3:52 AM 64.0 °F - 62.1 °F 93% 30.04 in 8.0 mi Calm Calm - N/A   Clear
4:52 AM 63.0 °F - 61.0 °F 93% 30.04 in 6.0 mi Calm Calm - N/A   Clear
5:52 AM 63.0 °F - 62.1 °F 97% 30.04 in 7.0 mi Calm Calm - N/A   Scattered Clouds
6:52 AM 64.0 °F - 61.0 °F 90% 30.04 in 6.0 mi Calm Calm - N/A   Clear
7:52 AM 68.0 °F - 63.0 °F 84% 30.06 in 7.0 mi SSW 3.5 mph - N/A   Overcast
8:52 AM 71.1 °F - 64.0 °F 78% 30.07 in 9.0 mi SSE 3.5 mph - N/A   Mostly Cloudy
9:52 AM 75.9 °F - 66.0 °F 71% 30.07 in 10.0 mi South 8.1 mph - N/A   Clear
10:52 AM 80.1 °F 81.9 °F 64.9 °F 60% 30.07 in 10.0 mi South 11.5 mph - N/A   Clear
11:52 AM 82.0 °F 83.8 °F 64.9 °F 56% 30.05 in 10.0 mi South 11.5 mph - N/A   Clear
12:52 PM 84.0 °F 86.3 °F 66.0 °F 55% 30.04 in 10.0 mi SSW 11.5 mph - N/A   Clear
1:52 PM 84.9 °F 87.1 °F 66.0 °F 53% 30.02 in 10.0 mi SSW 12.7 mph - N/A   Clear
2:52 PM 86.0 °F 88.8 °F 66.9 °F 53% 30.01 in 10.0 mi SSW 9.2 mph - N/A   Clear
3:52 PM 87.1 °F 90.6 °F 68.0 °F 53% 29.98 in 10.0 mi South 10.4 mph - N/A   Partly Cloudy
4:52 PM 86.0 °F 89.4 °F 68.0 °F 55% 29.97 in 10.0 mi South 9.2 mph - N/A   Clear
5:52 PM 84.9 °F 88.2 °F 68.0 °F 57% 29.96 in 10.0 mi SSW 11.5 mph - N/A   Clear
6:52 PM 84.0 °F 87.8 °F 69.1 °F 61% 29.95 in 10.0 mi SSW 5.8 mph - N/A   Clear
7:52 PM 80.1 °F 82.7 °F 68.0 °F 67% 29.95 in 10.0 mi South 3.5 mph - N/A   Clear
8:52 PM 75.0 °F - 68.0 °F 79% 29.96 in 10.0 mi Calm Calm - N/A   Clear
9:52 PM 75.0 °F - 68.0 °F 79% 29.97 in 10.0 mi Calm Calm - N/A   Clear
10:52 PM 73.0 °F - 68.0 °F 84% 29.97 in 10.0 mi South 3.5 mph - N/A   Clear
11:52 PM 73.9 °F - 68.0 °F 82% 29.98 in 10.0 mi SSW 3.5 mph - N/A   Clear